When you browse on this site, cookies collect data to enhance your experience and personalize the content and advertising you see.
Visit our Privacy Policy to learn more. By continuing to use the site, you agree to this use of cookies and data.
  • In Spain
  • List of Countries
  • For 7 days
  • Water Temperature
  • Weather Map
  • Weather Widgets
  • user-avatar
    Login

    Hourly Weather Ibb

    Today, 4 June, Thursday

    Time Temperature Precipitation Wind Pressure Humidity
    00:00 +21°C° 0.8 mm 1 mps 594 mmHg 73%
    01:00 +20°C° 2 mm 1 mps 593 mmHg 75%
    02:00 +19°C° 2 mm 1 mps 593 mmHg 78%
    03:00 +19°C° 0 mm 1 mps 592 mmHg 80%
    04:00 +19°C° 0.4 mm 1 mps 593 mmHg 80%
    05:00 +19°C° 0.4 mm 1 mps 593 mmHg 81%
    06:00 +19°C° 0.4 mm 1 mps 593 mmHg 82%
    07:00 +19°C° 0.6 mm 1 mps 594 mmHg 82%
    08:00 +19°C° 0.6 mm 1 mps 594 mmHg 82%
    09:00 +18°C° 0.6 mm 2 mps 594 mmHg 83%
    10:00 +19°C° 1.2 mm 2 mps 595 mmHg 79%
    11:00 +20°C° 1.2 mm 2 mps 595 mmHg 75%
    12:00 +20°C° 1.2 mm 2 mps 595 mmHg 71%
    13:00 +20°C° 3.1 mm 2 mps 595 mmHg 76%
    14:00 +19°C° 3.1 mm 2 mps 594 mmHg 80%
    15:00 +18°C° 3.1 mm 2 mps 593 mmHg 85%
    16:00 +18°C° 4.4 mm 2 mps 593 mmHg 85%
    17:00 +17°C° 4.4 mm 2 mps 593 mmHg 86%
    18:00 +17°C° 4.4 mm 2 mps 593 mmHg 86%
    19:00 +17°C° 1 mm 2 mps 594 mmHg 83%
    20:00 +18°C° 1 mm 2 mps 594 mmHg 80%
    21:00 +18°C° 1 mm 2 mps 594 mmHg 78%
    22:00 +18°C° 0.2 mm 2 mps 594 mmHg 78%
    23:00 +18°C° 0.2 mm 2 mps 594 mmHg 78%

    Tomorrow, 5 June, Friday

    Time Temperature Precipitation Wind Pressure Humidity
    00:00 +18°C° 0.2 mm 2 mps 594 mmHg 78%
    01:00 +18°C° 0.2 mm 2 mps 594 mmHg 79%
    02:00 +18°C° 0.2 mm 2 mps 594 mmHg 80%
    03:00 +18°C° 0.2 mm 2 mps 593 mmHg 82%
    04:00 +17°C° 0.6 mm 2 mps 594 mmHg 83%
    05:00 +17°C° 0.6 mm 2 mps 594 mmHg 83%
    06:00 +17°C° 0.6 mm 2 mps 594 mmHg 84%
    07:00 +17°C° 0.5 mm 2 mps 595 mmHg 82%
    08:00 +18°C° 0.5 mm 2 mps 595 mmHg 79%
    09:00 +18°C° 0.5 mm 2 mps 595 mmHg 77%
    10:00 +19°C° 0.7 mm 2 mps 596 mmHg 73%
    11:00 +20°C° 0.7 mm 2 mps 596 mmHg 68%
    12:00 +21°C° 0.7 mm 3 mps 596 mmHg 64%
    13:00 +21°C° 1.4 mm 3 mps 596 mmHg 63%
    14:00 +22°C° 1.4 mm 3 mps 595 mmHg 62%
    15:00 +22°C° 1.4 mm 3 mps 595 mmHg 62%
    16:00 +23°C° 1.3 mm 2 mps 595 mmHg 62%
    17:00 +21°C° 1.3 mm 2 mps 595 mmHg 63%
    18:00 +21°C° 1.3 mm 2 mps 595 mmHg 64%
    19:00 +21°C° 0.1 mm 2 mps 595 mmHg 66%
    20:00 +21°C° 0.1 mm 2 mps 595 mmHg 67%
    21:00 +20°C° 0.1 mm 2 mps 595 mmHg 69%
    22:00 +21°C° 0 mm 1 mps 595 mmHg 68%
    23:00 +21°C° 0 mm 1 mps 595 mmHg 68%

    Day after tomorrow, 6 June, Saturday

    Time Temperature Precipitation Wind Pressure Humidity
    00:00 +21°C° 0 mm 1 mps 595 mmHg 67%
    01:00 +20°C° 0 mm 1 mps 595 mmHg 67%
    02:00 +20°C° 0 mm 1 mps 594 mmHg 68%
    03:00 +20°C° 0 mm 1 mps 594 mmHg 68%
    04:00 +20°C° 0 mm 1 mps 594 mmHg 67%
    05:00 +20°C° 0 mm 1 mps 594 mmHg 66%
    06:00 +20°C° 0 mm 1 mps 595 mmHg 65%
    07:00 +21°C° 0 mm 1 mps 596 mmHg 58%
    08:00 +22°C° 0 mm 1 mps 596 mmHg 50%
    09:00 +24°C° 0 mm 2 mps 597 mmHg 43%
    10:00 +25°C° 0 mm 2 mps 597 mmHg 38%
    11:00 +26°C° 0 mm 3 mps 598 mmHg 34%
    12:00 +27°C° 0 mm 4 mps 598 mmHg 30%
    13:00 +28°C° 0 mm 4 mps 598 mmHg 28%
    14:00 +28°C° 0 mm 4 mps 597 mmHg 26%
    15:00 +28°C° 0 mm 4 mps 597 mmHg 25%
    16:00 +27°C° 0 mm 4 mps 597 mmHg 30%
    17:00 +27°C° 0 mm 3 mps 596 mmHg 35%
    18:00 +26°C° 0 mm 2 mps 596 mmHg 41%
    19:00 +25°C° 0.1 mm 2 mps 596 mmHg 48%
    20:00 +24°C° 0.1 mm 1 mps 595 mmHg 55%
    21:00 +21°C° 0.1 mm 0 mps 595 mmHg 63%
    22:00 +21°C° 0 mm 0 mps 595 mmHg 61%
    23:00 +20°C° 0 mm 0 mps 595 mmHg 60%

    7 June, Sunday

    Time Temperature Precipitation Wind Pressure Humidity
    00:00 +20°C° 0 mm 0 mps 595 mmHg 59%
    01:00 +20°C° 0 mm 0 mps 594 mmHg 58%
    02:00 +20°C° 0 mm 0 mps 594 mmHg 57%
    03:00 +19°C° 0 mm 0 mps 593 mmHg 56%
    04:00 +21°C° 0 mm 1 mps 593 mmHg 56%
    05:00 +21°C° 0 mm 1 mps 593 mmHg 56%
    06:00 +21°C° 0 mm 1 mps 594 mmHg 56%
    07:00 +23°C° 0 mm 1 mps 595 mmHg 48%
    08:00 +24°C° 0 mm 1 mps 596 mmHg 40%
    09:00 +26°C° 0 mm 1 mps 597 mmHg 33%
    10:00 +27°C° 0 mm 2 mps 597 mmHg 31%
    11:00 +28°C° 0 mm 3 mps 597 mmHg 28%
    12:00 +29°C° 0 mm 4 mps 597 mmHg 26%
    13:00 +29°C° 0.4 mm 4 mps 597 mmHg 30%
    14:00 +28°C° 0.4 mm 4 mps 596 mmHg 35%
    15:00 +28°C° 0.4 mm 4 mps 595 mmHg 40%
    16:00 +27°C° 0.5 mm 3 mps 595 mmHg 44%
    17:00 +26°C° 0.5 mm 3 mps 595 mmHg 48%
    18:00 +25°C° 0.5 mm 2 mps 594 mmHg 53%
    19:00 +24°C° 0.1 mm 2 mps 594 mmHg 55%
    20:00 +24°C° 0.1 mm 2 mps 594 mmHg 58%
    21:00 +24°C° 0.1 mm 1 mps 594 mmHg 61%
    22:00 +23°C° 0 mm 1 mps 594 mmHg 60%
    23:00 +23°C° 0 mm 1 mps 594 mmHg 59%

    8 June, Monday

    Time Temperature Precipitation Wind Pressure Humidity
    00:00 +23°C° 0 mm 1 mps 594 mmHg 58%
    01:00 +23°C° 0 mm 1 mps 593 mmHg 57%
    02:00 +22°C° 0 mm 1 mps 593 mmHg 55%
    03:00 +22°C° 0 mm 1 mps 593 mmHg 54%
    04:00 +22°C° 0 mm 1 mps 593 mmHg 53%
    05:00 +22°C° 0 mm 1 mps 593 mmHg 51%
    06:00 +22°C° 0 mm 1 mps 593 mmHg 50%
    07:00 +24°C° 0 mm 1 mps 594 mmHg 43%
    08:00 +25°C° 0 mm 1 mps 595 mmHg 35%
    09:00 +27°C° 0 mm 1 mps 596 mmHg 28%
    10:00 +28°C° 0 mm 2 mps 596 mmHg 28%
    11:00 +28°C° 0 mm 3 mps 596 mmHg 28%
    12:00 +29°C° 0 mm 3 mps 596 mmHg 28%
    13:00 +29°C° 0 mm 3 mps 596 mmHg 29%
    14:00 +29°C° 0 mm 3 mps 595 mmHg 29%
    15:00 +29°C° 0 mm 3 mps 595 mmHg 29%
    16:00 +28°C° 0 mm 3 mps 595 mmHg 33%
    17:00 +28°C° 0 mm 3 mps 594 mmHg 37%
    18:00 +27°C° 0 mm 2 mps 594 mmHg 40%
    19:00 +26°C° 0 mm 2 mps 594 mmHg 47%
    20:00 +25°C° 0 mm 1 mps 594 mmHg 53%
    21:00 +24°C° 0 mm 1 mps 594 mmHg 59%
    22:00 +24°C° 0 mm 1 mps 594 mmHg 57%
    23:00 +24°C° 0 mm 1 mps 593 mmHg 56%

    9 June, Tuesday

    Time Temperature Precipitation Wind Pressure Humidity
    00:00 +23°C° 0 mm 1 mps 593 mmHg 54%
    01:00 +23°C° 0 mm 1 mps 593 mmHg 52%
    02:00 +23°C° 0 mm 1 mps 593 mmHg 49%
    03:00 +23°C° 0 mm 2 mps 593 mmHg 47%
    04:00 +23°C° 0 mm 2 mps 593 mmHg 46%
    05:00 +23°C° 0 mm 2 mps 593 mmHg 45%
    06:00 +23°C° 0 mm 2 mps 593 mmHg 44%
    07:00 +24°C° 0 mm 2 mps 595 mmHg 39%
    08:00 +26°C° 0 mm 2 mps 596 mmHg 33%
    09:00 +28°C° 0 mm 2 mps 597 mmHg 28%
    10:00 +28°C° 0 mm 3 mps 597 mmHg 27%
    11:00 +29°C° 0 mm 4 mps 597 mmHg 26%
    12:00 +30°C° 0 mm 5 mps 597 mmHg 25%
    13:00 +30°C° 0 mm 5 mps 596 mmHg 25%
    14:00 +30°C° 0 mm 5 mps 596 mmHg 25%
    15:00 +30°C° 0 mm 5 mps 596 mmHg 26%
    16:00 +29°C° 0 mm 4 mps 596 mmHg 29%
    17:00 +28°C° 0 mm 3 mps 595 mmHg 33%
    18:00 +27°C° 0 mm 2 mps 595 mmHg 37%
    19:00 +26°C° 0 mm 1 mps 595 mmHg 43%
    20:00 +25°C° 0 mm 1 mps 595 mmHg 50%
    21:00 +24°C° 0 mm 1 mps 594 mmHg 57%
    22:00 +24°C° 0 mm 1 mps 594 mmHg 57%
    23:00 +24°C° 0 mm 1 mps 594 mmHg 57%
    Show more